Location: ?ernuc
(50.3016°N, 14.2019°E)
Time: 01:00:44
(UTC+00:00)

Daily predictions for brighter satellites

Satellite Brightness Start Highest point End
(mag) Time Altitude Azimuth Time Altitude Azimuth Time Altitude Azimuth
Cosmos 494 Rocket 4.0 00:00:11 10° NNW 00:05:27 88° ENE 00:09:18 19° SSE
Gbstr 26 Del rocket 4.1 00:00:13 10° WNW 00:06:11 85° NNE 00:13:25 10° ESE
Cosmos 1862 3.0 00:07:57 35° S 00:09:25 86° E 00:13:07 10° N
Cosmos 2297 Rocket 2.2 00:04:24 10° NNW 00:10:06 90° WSW 00:15:01 14° SSE
Cosmos 1782 3.3 00:07:16 10° NNW 00:10:44 39° W 00:11:51 30° SW
Cosmos 1726 Rocket 3.6 00:09:01 10° NNW 00:13:29 71° W 00:15:53 27° S
CZ-2D R/B 4.3 00:11:33 10° NE 00:14:50 16° E 00:18:04 10° SE
Cosmos 2112 Rocket 4.2 00:10:11 10° NNW 00:15:20 57° WSW 00:18:23 24° S
BREEZE-M DEB (TANK) 4.3 00:13:13 10° W 00:18:11 86° S 00:40:38 10° E
Cosmos 2058 3.6 00:18:00 24° SW 00:19:50 40° WNW 00:23:35 10° N
BREEZE M DEB (TANK) 4.3 00:05:46 10° SW 00:20:03 43° SSE 00:24:21 10° E
Cosmos 1892 Rocket 3.5 00:18:39 28° S 00:20:56 85° E 00:25:16 10° N
Cosmos 44 3.8 00:19:22 16° WSW 00:22:40 48° NW 00:27:00 10° NNE
Cosmos 1980 Rocket 4.0 00:23:48 10° SE 00:27:45 20° E 00:31:43 10° NE
Meteor 2-2 Rocket 4.4 00:23:48 10° N 00:29:28 73° ENE 00:34:28 13° SSE
Resurs 1-4 Rocket 3.9 00:25:20 10° NE 00:29:34 24° E 00:33:46 10° SE
Cosmos 1680 Rocket 4.2 00:25:50 10° NW 00:30:38 37° WSW 00:33:13 23° SSW
Spot 2 3.9 00:29:12 24° S 00:31:41 75° WSW 00:35:44 10° NNW
RESURS DK-1 2.4 00:28:55 10° NW 00:32:50 55° WSW 00:34:58 24° S
H-2A R/B 2.8 00:34:14 28° SSW 00:35:39 40° W 00:39:16 10° NNW
Cosmos 1697 Rocket 3.3 00:32:50 19° S 00:36:35 47° ESE 00:42:00 10° NE
SeaSat 1 2.4 00:32:10 10° SSE 00:37:05 88° WSW 00:42:01 10° NNW
Cosmos 1656 3.8 00:33:45 21° SW 00:37:38 73° WNW 00:43:13 10° NNE
Cosmos 1626 Rocket 4.4 00:35:07 17° SSE 00:38:11 44° E 00:42:20 10° NNE
Cosmos 2227 Rocket 2.3 00:35:54 10° NNW 00:41:37 78° ENE 00:47:17 10° SSE
MSX 4.1 00:38:13 10° NNE 00:43:54 61° ESE 00:48:21 17° S
Cosmos 1356 Rocket 3.5 00:41:27 10° NNW 00:45:19 53° W 00:47:29 24° SSW
BlueWalker 3 2.1 00:43:40 10° WNW 00:47:20 68° NNE 00:50:58 10° E
Cosmos 1602 4.3 00:46:12 24° WSW 00:47:32 34° WNW 00:50:33 10° N
ATLAS 2AS CENTAUR R/B 3.6 00:40:58 10° NW 00:47:37 51° NE 00:54:07 10° ESE
Cosmos-2242 2.9 00:45:56 10° NNW 00:50:07 78° W 00:53:04 19° S
H-2A R/B 2.9 00:50:53 10° NNE 00:54:50 41° E 00:58:11 14° SSE
ISS -3.9 00:51:56 10° WNW 00:55:18 85° SSW 00:58:39 10° ESE
Okean 1 4.2 00:52:24 10° N 00:56:00 44° ENE 00:59:35 10° SSE
Cosmos 1441 Rocket 3.2 00:58:03 24° SW 00:59:56 55° WNW 01:03:25 10° N
NPP 3.8 00:56:22 10° NNE 01:01:47 75° ESE 01:06:09 16° S
USA 32 4.2 00:59:07 15° S 01:03:33 74° E 01:08:46 10° N
ALOS 3.9 01:02:02 10° NE 01:05:55 27° E 01:09:46 10° SSE
Cosmos 1125 Rocket 3.8 01:06:12 16° S 01:10:24 63° ESE 01:15:37 10° NNE
Cosmos 2221 3.2 01:06:32 10° N 01:10:44 53° ENE 01:14:54 10° SSE
CZ-2C R/B 4.0 01:11:02 15° SW 01:14:06 24° W 01:18:34 10° NW
Meteor 2-3 Rocket 4.2 01:10:11 17° SW 01:14:36 52° WNW 01:20:17 10° N
Cosmos 2151 3.9 01:15:53 10° SSE 01:19:48 42° E 01:23:45 10° NNE
Cosmos 2058 Rocket 4.2 01:18:54 10° NNW 01:22:42 29° W 01:25:27 16° SW
Cosmos 1315 Rocket 3.9 01:19:51 10° NW 01:23:04 26° W 01:25:06 17° SW
IDEFIX/ARIANE 42P 2.8 01:22:46 10° N 01:27:53 59° WNW 01:32:15 14° SW
BREEZE-M DEB 4.1 01:14:43 10° W 01:29:17 84° S 01:33:08 10° E
Cosmos 1812 Rocket 3.5 01:26:40 10° NNW 01:31:06 79° W 01:35:27 10° S
Cosmos 2082 4.2 01:25:49 10° NNW 01:31:31 66° ENE 01:37:08 10° SE
Lacrosse 5 rocket 2.4 01:32:45 10° NW 01:36:35 45° NNE 01:40:21 10° E
Cosmos 2219 3.2 01:34:20 10° NNW 01:40:06 88° WSW 01:45:46 10° SSE
ADEOS II 2.5 01:38:57 10° NNE 01:44:09 61° ESE 01:49:20 10° S
CZ-4C R/B 4.0 01:39:50 10° WNW 01:44:14 28° NNW 01:49:40 10° NE
Cosmos 921 Rocket 3.3 01:41:09 10° NNW 01:45:37 73° ENE 01:49:59 10° SSE
SL-16 R/B 3.2 01:40:23 10° SE 01:46:30 60° ENE 01:52:40 10° N
SL-16 R/B 4.4 01:42:38 10° SE 01:46:34 20° E 01:50:30 10° NE
Envisat 3.6 01:41:53 10° NNE 01:46:53 54° E 01:51:50 10° S
Cosmos 2263 Rocket 2.2 01:41:43 10° NNW 01:47:21 68° WSW 01:52:54 10° SSE
Cosmos 1825 Rocket 3.9 01:46:19 10° S 01:50:35 66° E 01:54:55 10° NNE
Cosmos 1238 Rocket 3.5 01:46:12 10° NNW 01:51:30 76° W 01:56:40 10° S
Gbstr 26 Del rocket 4.3 01:46:39 10° WNW 01:52:57 55° SSW 02:00:18 10° SE
Cosmos 2297 Rocket 3.8 01:49:52 10° WNW 01:53:19 17° W 01:56:44 10° SW
CZ-2D R/B 2.1 01:50:12 10° NNE 01:55:30 83° WNW 02:00:43 10° SSW
DMSP B5D2-2 4.2 01:56:39 10° SSE 02:01:54 88° ENE 02:07:11 10° NNW
Meteor 1-27 Rocket 4.2 01:56:51 10° N 02:02:46 71° ENE 02:08:41 10° SSE
BREEZE-M DEB (TANK) 3.1 02:01:56 10° WSW 02:03:34 17° SSW 02:05:19 10° SSE
Cosmos 1076 Rocket 4.3 01:59:32 10° S 02:03:41 51° E 02:07:51 10° NNE
Cosmos 1602 Rocket 4.2 02:05:21 10° SW 02:09:25 41° WNW 02:13:32 10° N
Resurs 1-4 Rocket 2.4 02:04:29 10° N 02:09:43 60° WNW 02:14:56 10° SSW
Cosmos 1980 Rocket 2.3 02:05:30 10° SSW 02:11:05 77° WNW 02:16:44 10° NNE
Meteor 1-10 Rocket 4.3 02:06:36 10° NNW 02:12:14 69° W 02:17:57 10° S
Tiangong -0.2 02:10:47 10° SW 02:12:59 17° S 02:15:11 10° SE
ATLAS 5 CENTAUR R/B 3.7 02:10:38 10° NNW 02:14:26 33° NE 02:19:01 10° E
SeaSat 1 4.1 02:12:14 10° SW 02:15:06 15° WSW 02:17:59 10° WNW
Cosmos 2181 Rocket 4.1 02:10:30 10° N 02:16:45 88° E 02:22:52 10° S
Cosmos 1842 Rocket 4.0 02:13:44 10° N 02:18:11 70° ENE 02:22:33 10° SSE
H-2A R/B 3.0 02:14:17 10° NNE 02:19:05 45° E 02:23:47 10° S
Cosmos 1697 Rocket 3.7 02:15:27 10° WSW 02:20:41 37° NW 02:25:57 10° NNE
